[[{"header":{"parameterUnit":"m.s-1","parameterCategory":1,"la1":30.2991,"la2":30.254,"lo1":-89.0895,"lo2":-89.0444,"dy":0.0017,"dx":0.0017,"nx":28,"ny":28,"refTime":"2024-04-07T09:00:00:Z","depth":0,"parameterNumber":2,"parameterNumberName":"U-component_of_WINDS"},"data":[0,0,0,0,0,0,0,0,0,0,0,0,0,0,0,0,0,0,0,0,0,0,0,0,0,0,0,0,0,0,0,0,0,0,0,0,0,0,0,0,0,0,0,0,0,0,0,0,0,0,0,0,0,0,0,0,0,0,-5.4233,-5.4233,0,-5.4278,-5.4279,-5.4279,-5.4259,-5.4258,-5.4257,-5.4256,-5.4299,-5.4301,-5.4303,0,0,0,0,0,0,0,0,0,0,0,0,0,-5.4128,-5.413,-5.4233,-5.4234,-5.4234,-5.4278,-5.4279,-5.4279,-5.426,-5.4258,-5.4257,-5.4256,-5.4298,-5.4301,-5.4304,0,0,0,0,0,0,0,0,0,0,0,0,0,-5.4173,-5.413,-5.4233,-5.423,-5.423,-5.4278,-5.4279,-5.4279,-5.426,-5.4258,-5.4257,-5.4255,-5.4298,-5.4301,-5.4304,-5.4357,0,0,-5.4314,-5.4315,0,0,0,0,0,0,0,0,-5.417,-5.4177,-5.423,-5.423,-5.423,-5.4262,-5.4257,-5.4305,-5.426,-5.4248,-5.4256,-5.4254,-5.4288,-5.4292,-5.4304,-5.4359,-5.4361,-5.4314,-5.4316,-5.4317,-5.4318,0,0,0,0,0,0,0,-5.4167,-5.4175,-5.4251,-5.423,-5.4231,-5.4225,-5.423,-5.4266,-5.4277,-5.4249,-5.4248,-5.4254,-5.4288,-5.4301,-5.4304,-5.4361,-5.4314,-5.4317,-5.4319,-5.432,-5.4462,-5.4463,0,0,0,0,0,0,-5.4165,-5.4172,-5.4249,-5.4252,-5.4196,-5.4229,-5.4234,-5.4253,-5.4276,-5.4278,-5.4255,-5.4253,-5.4296,-5.4301,-5.4306,-5.4368,-5.4317,-5.432,-5.4322,-5.446,-5.4462,-5.4464,0,0,0,0,0,0,-5.4162,-5.4172,-5.4247,-5.4212,-5.4221,-5.4232,-5.4254,-5.4255,-5.4268,-5.4281,-5.4282,-5.4267,-5.4295,-5.4301,-5.4344,-5.4369,-5.4322,-5.4325,-5.4458,-5.4461,-5.4463,-5.4493,0,0,0,0,0,0,-5.4159,-5.4171,-5.4191,-5.4213,-5.4223,-5.4286,-5.4256,-5.4257,-5.4274,-5.4271,-5.4292,-5.4294,-5.4294,-5.434,-5.4348,-5.4373,-5.4327,-5.4455,-5.4459,-5.4462,-5.449,-5.4497,-5.4503,0,0,0,0,0,-5.4156,-5.4197,-5.4192,-5.4202,-5.4249,-5.4287,-5.4293,-5.4294,-5.4276,-5.4296,-5.4305,-5.4293,-5.4366,-5.4344,-5.4353,-5.438,-5.4454,-5.4458,-5.4462,-5.4487,-5.4495,-5.4502,0,0,0,0,0,0,-5.4177,-5.42,-5.4195,-5.4245,-5.4264,-5.4284,-5.4309,-5.4302,-5.4326,-5.4322,-5.4322,-5.4326,-5.4371,-5.438,-5.4355,-5.4432,-5.4407,-5.4413,-5.4423,-5.4431,-5.4437,-5.4432,-5.433,0,0,0,0,0,-5.4188,-5.4218,-5.4236,-5.4278,-5.4289,-5.4298,-5.4314,-5.4313,-5.4333,-5.4341,-5.4352,-5.4371,-5.4398,-5.4416,-5.4442,-5.4493,-5.4496,-5.4516,-5.4522,-5.4527,-5.4531,-5.4558,-5.4566,-5.4478,-5.4478,-5.4477,0,0,-5.4209,-5.4226,-5.4244,-5.4283,-5.4298,-5.4328,-5.4304,-5.4337,-5.4359,-5.4345,-5.4386,-5.4396,-5.4417,-5.4464,-5.4485,-5.4473,-5.4557,-5.4532,-5.4536,-5.4537,-5.4563,-5.4571,-5.4579,-5.448,-5.448,-5.4479,0,0,-5.4263,-5.428,-5.4316,-5.4333,-5.4357,-5.4363,-5.4372,-5.4393,-5.4399,-5.4441,-5.4432,-5.4458,-5.4505,-5.4521,-5.4534,-5.4598,-5.4587,-5.4607,-5.4637,-5.4664,-5.4671,-5.4677,-5.4697,-5.4705,-5.4612,-5.4612,-5.4612,0,-5.4286,-5.4332,-5.4336,-5.4369,-5.4386,-5.4378,-5.4414,-5.443,-5.4461,-5.4472,-5.4459,-5.4519,-5.4533,-5.4583,-5.4598,-5.4611,-5.462,-5.4602,-5.467,-5.4676,-5.4681,-5.4701,-5.4709,-5.4614,-5.4613,-5.4613,-5.4613,0,-5.4358,-5.4391,-5.4417,-5.4448,-5.4469,-5.4504,-5.4512,-5.4532,-5.4531,-5.4539,-5.4581,-5.4598,-5.4627,-5.464,-5.4638,-5.469,-5.4682,-5.467,-5.4644,-5.4692,-5.471,-5.4718,-5.4616,-5.4616,-5.4615,-5.4615,0,0,-5.4422,-5.4458,-5.4467,-5.4481,-5.4509,-5.4533,-5.4569,-5.4598,-5.4615,-5.4638,-5.4666,-5.4708,-5.4697,-5.4713,-5.4713,-5.4737,-5.4784,-5.4722,-5.4722,-5.473,-5.484,-5.4847,-5.4855,-5.4779,-5.4781,-5.4782,-5.4838,0,-5.4476,-5.4538,-5.4544,-5.4599,-5.4628,-5.4623,-5.4653,-5.4673,-5.4682,-5.4707,-5.4717,-5.4746,-5.4731,-5.474,-5.4764,-5.4773,-5.4805,-5.477,-5.4803,-5.4804,-5.4794,-5.4865,-5.4872,-5.4923,-5.4845,-5.4846,-5.4847,0,-5.4546,-5.4573,-5.4631,-5.4655,-5.4667,-5.4695,-5.4723,-5.4748,-5.4771,-5.4776,-5.4795,-5.4793,-5.4829,-5.4806,-5.4854,-5.4829,-5.4844,-5.4851,-5.4853,-5.4853,-5.4826,-5.4864,-5.494,-5.4947,-5.4859,-5.4858,-5.4857,0,-5.4584,-5.4634,-5.4675,-5.4688,-5.4718,-5.4737,-5.475,-5.4772,-5.479,-5.4815,-5.4826,-5.4855,-5.487,-5.4892,-5.4898,-5.4881,-5.4945,-5.4923,-5.4948,-5.4948,-5.4959,-5.4957,-5.5035,-5.4974,-5.4974,-5.4974,-5.4974,0,-5.4642,-5.4677,-5.4693,-5.4718,-5.4757,-5.4764,-5.4803,-5.4815,-5.4835,-5.4861,-5.4859,-5.4884,-5.4892,-5.4918,-5.4924,-5.4962,-5.4969,-5.4973,-5.4973,-5.4971,-5.497,-5.4978,-5.4973,-5.4976,-5.4976,-5.4975,-5.4975,0,-5.4688,-5.4701,-5.4745,-5.4771,-5.4778,-5.4806,-5.4828,-5.4851,-5.4862,-5.4895,-5.4904,-5.4919,-5.495,-5.4959,-5.4996,-5.5,-5.5044,-5.5043,-5.5036,-5.5035,-5.5059,-5.5056,-5.5142,-5.5152,-5.5088,-5.5088,-5.5089,0,-5.4722,-5.4749,-5.4779,-5.4797,-5.4812,-5.4841,-5.486,-5.4869,-5.4889,-5.4918,-5.4938,-5.4969,-5.4994,-5.5044,-5.5058,-5.5086,-5.5084,-5.5112,-5.5088,-5.5085,-5.5081,-5.5078,-5.508,-5.5115,-5.5116,-5.5116,-5.5117,0,-5.478,-5.4786,-5.4813,-5.4844,-5.4867,-5.4891,-5.4914,-5.493,-5.4942,-5.4964,-5.4997,-5.5016,-5.5055,-5.5086,-5.5115,-5.5128,-5.5124,-5.5125,-5.5132,-5.5128,-5.5122,-5.5123,-5.5045,-5.5122,-5.5121,-5.5121,-5.5121,-5.5121,-5.4819,-5.4843,-5.4868,-5.4899,-5.4919,-5.4941,-5.4964,-5.4979,-5.5006,-5.5039,-5.5043,-5.5078,-5.5101,-5.5141,-5.5155,-5.5182,-5.5174,-5.5184,-5.5186,-5.5188,-5.5189,-5.5122,-5.5188,-5.5188,-5.5188,-5.5188,-5.5188,0,-5.4875,-5.4892,-5.4921,-5.4954,-5.4979,-5.4976,-5.5002,-5.5023,-5.5053,-5.5076,-5.5102,-5.5139,-5.5169,-5.5187,-5.5217,-5.5235,-5.5234,-5.5242,-5.5239,-5.5242,-5.5196,-5.5185,-5.5243,-5.5243,-5.5243,-5.5243,-5.5243,-5.5243,-5.4907,-5.4946,-5.4955,-5.5005,-5.5021,-5.5056,-5.5071,-5.5091,-5.5109,-5.5152,-5.5177,-5.5189,-5.521,-5.5242,-5.527,-5.5274,-5.5284,-5.5293,-5.5296,-5.5251,-5.5245,-5.524,-5.523,-5.5296,-5.5296,-5.5339,-5.534,-5.534]},{"header":{"parameterUnit":"m.s-1","parameterCategory":1,"la1":30.2991,"la2":30.254,"lo1":-89.0895,"lo2":-89.0444,"dy":0.0017,"dx":0.0017,"nx":28,"ny":28,"refTime":"2024-04-07T09:00:00:Z","depth":0,"parameterNumber":3,"parameterNumberName":"V-component_of_WINDS"},"data":[0,0,0,0,0,0,0,0,0,0,0,0,0,0,0,0,0,0,0,0,0,0,0,0,0,0,0,0,0,0,0,0,0,0,0,0,0,0,0,0,0,0,0,0,0,0,0,0,0,0,0,0,0,0,0,0,0,0,3.8609,3.8609,0,3.8641,3.8641,3.8642,3.8691,3.8692,3.8692,3.8693,3.8722,3.8722,3.8722,0,0,0,0,0,0,0,0,0,0,0,0,0,3.8587,3.8588,3.8609,3.8609,3.861,3.8641,3.8641,3.8642,3.8691,3.8692,3.8693,3.8694,3.8722,3.8722,3.8722,0,0,0,0,0,0,0,0,0,0,0,0,0,3.8606,3.8588,3.8609,3.8638,3.8641,3.8641,3.8641,3.8642,3.869,3.8692,3.8693,3.8694,3.8722,3.8722,3.8722,3.8694,0,0,3.8721,3.8721,0,0,0,0,0,0,0,0,3.8605,3.8606,3.8633,3.8636,3.8639,3.8663,3.8644,3.8659,3.869,3.8671,3.8693,3.8695,3.8701,3.8703,3.8706,3.8696,3.8697,3.8721,3.8721,3.8721,3.8721,0,0,0,0,0,0,0,3.8603,3.8605,3.8621,3.8633,3.8637,3.8649,3.8653,3.8647,3.8678,3.8673,3.8677,3.868,3.8703,3.8706,3.8707,3.8697,3.8721,3.8721,3.8721,3.8721,3.867,3.8669,0,0,0,0,0,0,3.8598,3.8604,3.862,3.8622,3.8625,3.8648,3.8652,3.8654,3.8678,3.8683,3.8679,3.8682,3.8705,3.8707,3.8708,3.868,3.8721,3.8721,3.8721,3.8671,3.867,3.8668,0,0,0,0,0,0,3.8597,3.8599,3.8619,3.8614,3.8618,3.8647,3.8648,3.8654,3.8657,3.8683,3.8688,3.8676,3.8706,3.8708,3.8699,3.8681,3.8721,3.8721,3.8673,3.8671,3.8669,3.8622,0,0,0,0,0,0,3.8597,3.8599,3.8589,3.8614,3.8618,3.861,3.8647,3.8654,3.8657,3.8662,3.8682,3.8686,3.8707,3.8698,3.8698,3.8682,3.8721,3.8675,3.8672,3.867,3.8625,3.8619,3.8613,0,0,0,0,0,3.8596,3.8573,3.8588,3.859,3.8606,3.8609,3.8611,3.8637,3.8656,3.8646,3.8663,3.8686,3.8683,3.8697,3.8697,3.8681,3.8676,3.8673,3.867,3.8628,3.862,3.8613,0,0,0,0,0,0,3.8543,3.8576,3.8594,3.8578,3.8591,3.8617,3.8605,3.8627,3.8633,3.8637,3.8667,3.8671,3.8658,3.8668,3.8683,3.8657,3.8683,3.868,3.8651,3.8644,3.8638,3.8636,3.8721,0,0,0,0,0,3.853,3.853,3.8558,3.8542,3.8548,3.8575,3.8577,3.8597,3.861,3.8615,3.8631,3.8642,3.8644,3.8644,3.8647,3.8627,3.8633,3.8616,3.861,3.8605,3.8602,3.8595,3.8588,3.8659,3.8659,3.8659,0,0,3.8501,3.852,3.8518,3.8532,3.8544,3.8543,3.8579,3.8576,3.8576,3.8613,3.8607,3.8619,3.8633,3.8619,3.8614,3.8627,3.8584,3.8601,3.8597,3.8597,3.8591,3.8584,3.8578,3.8657,3.8657,3.8658,0,0,3.8451,3.8464,3.8454,3.8465,3.8484,3.8503,3.85,3.8524,3.8535,3.8529,3.8558,3.8557,3.856,3.857,3.8575,3.8531,3.8553,3.8531,3.85,3.8492,3.8486,3.8482,3.8468,3.8462,3.8528,3.8528,3.8528,0,3.8413,3.8414,3.8444,3.8441,3.8447,3.8484,3.8473,3.8483,3.85,3.8503,3.8519,3.8525,3.8536,3.8526,3.8516,3.8519,3.8517,3.8529,3.8485,3.848,3.8476,3.8464,3.8458,3.8525,3.8526,3.8526,3.8526,0,3.8369,3.8369,3.8358,3.8377,3.8381,3.8374,3.8403,3.8404,3.8423,3.8441,3.8435,3.8451,3.846,3.8459,3.8476,3.8452,3.846,3.848,3.8506,3.8467,3.8455,3.845,3.8522,3.8523,3.8523,3.8524,0,0,3.8283,3.8322,3.8317,3.8328,3.8352,3.8352,3.8347,3.8357,3.8358,3.837,3.8367,3.8369,3.8389,3.8395,3.8414,3.8407,3.8374,3.8428,3.8429,3.8419,3.835,3.8336,3.833,3.8389,3.8388,3.8387,3.835,0,3.8239,3.8233,3.8262,3.8249,3.8251,3.8287,3.8283,3.8297,3.8314,3.8317,3.8335,3.8337,3.8362,3.8366,3.8361,3.8379,3.8361,3.8382,3.8386,3.8386,3.8383,3.8323,3.8308,3.8271,3.8345,3.8344,3.8344,0,3.8185,3.8197,3.8184,3.8212,3.8214,3.821,3.8223,3.8225,3.8243,3.8256,3.8264,3.8288,3.8285,3.831,3.8307,3.8321,3.8324,3.8334,3.8333,3.8335,3.8363,3.8325,3.826,3.8255,3.8337,3.8337,3.8338,0,3.8127,3.8139,3.8134,3.8141,3.8173,3.817,3.8182,3.8201,3.8206,3.8217,3.8222,3.8231,3.8236,3.8243,3.8269,3.8285,3.8263,3.8291,3.8274,3.8274,3.8268,3.8268,3.8204,3.8269,3.8269,3.8269,3.8269,0,3.8074,3.8065,3.8109,3.8106,3.8098,3.8131,3.8122,3.8138,3.8155,3.8156,3.8187,3.8186,3.822,3.8224,3.8244,3.8239,3.8241,3.8251,3.8257,3.8249,3.8248,3.8252,3.8256,3.8267,3.8268,3.8268,3.8268,0,3.8007,3.8036,3.8033,3.8065,3.8072,3.8065,3.8092,3.809,3.811,3.8111,3.8113,3.8143,3.815,3.8176,3.8188,3.8201,3.8191,3.8201,3.8185,3.8189,3.8172,3.8174,3.8109,3.8103,3.817,3.8169,3.8169,0,3.7972,3.7967,3.7999,3.8003,3.8015,3.802,3.8027,3.8059,3.8064,3.8086,3.8082,3.8091,3.81,3.8108,3.8131,3.8141,3.8152,3.8129,3.8154,3.8147,3.8154,3.8154,3.8155,3.8124,3.8123,3.8122,3.8121,0,3.7908,3.7923,3.7932,3.7947,3.7954,3.7967,3.7981,3.7982,3.8018,3.8022,3.803,3.8038,3.8052,3.8061,3.8075,3.8087,3.811,3.8114,3.8111,3.8103,3.8095,3.8101,3.8172,3.8115,3.8116,3.8116,3.8116,3.8117,3.7857,3.7855,3.7879,3.7888,3.7903,3.7916,3.7917,3.7938,3.7946,3.7961,3.798,3.7986,3.8005,3.8027,3.8038,3.8043,3.8056,3.8051,3.805,3.8049,3.8046,3.8094,3.8046,3.8046,3.8046,3.8046,3.8046,0,3.7796,3.7813,3.7822,3.7842,3.785,3.7873,3.7891,3.7896,3.7901,3.7918,3.7928,3.7938,3.7948,3.7972,3.7984,3.7984,3.7995,3.7986,3.7987,3.799,3.8033,3.8035,3.7977,3.7977,3.7977,3.7977,3.7977,3.7977,3.7765,3.7764,3.7782,3.779,3.7807,3.7815,3.7823,3.7836,3.785,3.786,3.787,3.7886,3.7906,3.7921,3.7931,3.7938,3.7941,3.7929,3.7939,3.7979,3.7986,3.7992,3.7995,3.7929,3.7929,3.7896,3.7896,3.7896]}]]